Location: La Chapelle
(48.3135°N, 1.3085°W)
Time: 10:22:45
(UTC+00:00)

DMSP B5D2-2 - Pass Details

Date: 03 March 2021
Orbit: 789 x 807 km, 98.3° (Epoch: 10 April)

Event Time Altitude Azimuth Distance (km) Brightness Sun altitude
Rises 19:46:49 0° 13° (NNE) 3,312 7.3 -19.7°
Reaches altitude 10° 19:49:10 10° 13° (NNE) 2,376 6.5 -20.1°
Maximum altitude 19:54:25 86° 287° (WNW) 801 4.0 -20.9°
Drops below altitude 10° 19:59:37 10° 198° (SSW) 2,349 6.5 -21.7°
Sets 20:01:55 0° 198° (SSW) 3,273 7.3 -22.1°
